TimeMST,TemperatureF,Dew PointF,Humidity,Sea Level PressureIn,VisibilityMPH,Wind Direction,Wind SpeedMPH,Gust SpeedMPH,PrecipitationIn,Events,Conditions,WindDirDegrees,DateUTC
12:17 AM,44.6,42.8,93,30.18,9.0,Calm,Calm,-,0.00,Rain,Light Rain,0,2012-11-04 06:17:00
12:53 AM,44.1,42.1,93,30.23,10.0,Calm,Calm,-,0.00,Rain,Light Rain,0,2012-11-04 06:53:00
1:53 AM,44.1,43.0,96,30.24,10.0,Calm,Calm,-,0.01,Rain,Light Rain,0,2012-11-04 07:53:00
1:53 AM,44.1,43.0,96,30.25,10.0,Calm,Calm,-,0.00,,Overcast,0,2012-11-04 08:53:00
2:53 AM,44.1,43.0,96,30.25,10.0,WSW,3.5,-,N/A,,Overcast,240,2012-11-04 09:53:00
3:53 AM,43.0,42.1,97,30.26,6.0,West,5.8,-,N/A,,Overcast,260,2012-11-04 10:53:00
4:30 AM,44.6,42.8,93,30.23,7.0,Calm,Calm,-,N/A,,Overcast,0,2012-11-04 11:30:00
4:53 AM,44.1,43.0,96,30.27,8.0,West,5.8,-,N/A,,Overcast,270,2012-11-04 11:53:00
5:53 AM,45.0,43.0,93,30.28,10.0,WSW,5.8,-,N/A,,Overcast,240,2012-11-04 12:53:00
6:53 AM,46.0,44.1,93,30.30,10.0,NNW,8.1,-,N/A,,Overcast,330,2012-11-04 13:53:00
7:53 AM,48.0,43.0,83,30.33,10.0,North,4.6,-,N/A,,Overcast,10,2012-11-04 14:53:00
8:53 AM,46.0,44.1,93,30.35,10.0,SSW,3.5,-,N/A,,Overcast,200,2012-11-04 15:53:00
9:53 AM,48.0,45.0,89,30.37,10.0,Calm,Calm,-,N/A,,Overcast,0,2012-11-04 16:53:00
10:53 AM,50.0,45.0,83,30.38,10.0,Calm,Calm,-,N/A,,Overcast,0,2012-11-04 17:53:00
11:53 AM,52.0,46.0,80,30.37,10.0,Calm,Calm,-,N/A,,Overcast,0,2012-11-04 18:53:00
12:53 PM,53.1,46.0,77,30.36,10.0,Calm,Calm,-,N/A,,Overcast,0,2012-11-04 19:53:00
1:53 PM,54.0,45.0,72,30.35,10.0,ESE,3.5,-,N/A,,Overcast,110,2012-11-04 20:53:00
2:53 PM,55.0,44.1,67,30.35,10.0,Calm,Calm,-,N/A,,Overcast,0,2012-11-04 21:53:00
3:53 PM,55.0,45.0,69,30.37,10.0,Calm,Calm,-,N/A,,Overcast,0,2012-11-04 22:53:00
4:53 PM,54.0,45.0,72,30.38,10.0,Calm,Calm,-,N/A,,Overcast,0,2012-11-04 23:53:00
5:53 PM,52.0,46.9,83,30.39,10.0,North,3.5,-,N/A,,Overcast,350,2012-11-05 00:53:00
6:53 PM,51.1,46.0,83,30.38,10.0,Calm,Calm,-,N/A,,Overcast,0,2012-11-05 01:53:00
7:53 PM,50.0,46.9,89,30.38,10.0,Calm,Calm,-,N/A,,Overcast,0,2012-11-05 02:53:00
8:53 PM,51.1,46.0,83,30.37,10.0,Calm,Calm,-,N/A,,Overcast,0,2012-11-05 03:53:00
9:53 PM,50.0,46.0,86,30.36,10.0,NNE,3.5,-,N/A,,Overcast,20,2012-11-05 04:53:00
10:53 PM,50.0,46.0,86,30.35,10.0,Calm,Calm,-,N/A,,Overcast,0,2012-11-05 05:53:00